FFT2149 KISP-KMCO

Flight info

Callsign FFT2149
Flight time 2h 31m
Altitude 36000
Route BEADS EMJAY Q167 ZJAAY Q97 SAWED MOXXY Q85 LPERD
Aircraft A320/M-SDE3FGHIRWY/LB1

Departure

Time 2026-05-07 20:18
Airport Long Island MacArthur Airport (KISP)

Arrival

Time 2026-05-07 22:50
Airport Orlando International Airport (KMCO)
Time Latitude Longitude Altitude Speed Heading
2026-05-07 19:50 40.79055 -73.09519 91 ft 0 kts 181°
2026-05-07 20:10 40.79058 -73.09519 91 ft 2 kts 180°
2026-05-07 20:11 40.79084 -73.09518 94 ft 4 kts 189°
2026-05-07 20:11 40.79106 -73.09505 90 ft 4 kts 235°
2026-05-07 20:11 40.79113 -73.09484 90 ft 0 kts 271°
2026-05-07 20:13 40.79118 -73.09505 89 ft 6 kts 301°
2026-05-07 20:14 40.79175 -73.09484 88 ft 14 kts 43°
2026-05-07 20:14 40.79270 -73.09463 89 ft 15 kts 345°
2026-05-07 20:14 40.79376 -73.09467 91 ft 16 kts
2026-05-07 20:14 40.79489 -73.09468 89 ft 17 kts 359°
2026-05-07 20:15 40.79612 -73.09469 87 ft 17 kts 359°
2026-05-07 20:15 40.79721 -73.09468 94 ft 14 kts
2026-05-07 20:15 40.79812 -73.09469 96 ft 12 kts 359°
2026-05-07 20:15 40.79905 -73.09470 96 ft 15 kts 360°
2026-05-07 20:16 40.79992 -73.09470 96 ft 11 kts
2026-05-07 20:16 40.80068 -73.09458 94 ft 12 kts 24°
2026-05-07 20:16 40.80138 -73.09396 94 ft 12 kts
2026-05-07 20:16 40.80187 -73.09429 91 ft 7 kts 318°
2026-05-07 20:17 40.80206 -73.09468 92 ft 3 kts 270°
2026-05-07 20:17 40.80202 -73.09480 92 ft 2 kts 243°
2026-05-07 20:17 40.80197 -73.09487 92 ft 1 kts 229°
2026-05-07 20:17 40.80096 -73.09627 95 ft 58 kts 225°
2026-05-07 20:18 40.79633 -73.10235 99 ft 126 kts 225°
2026-05-07 20:18 40.78893 -73.11233 209 ft 170 kts 229°
2026-05-07 20:18 40.78065 -73.12408 797 ft 180 kts 230°
2026-05-07 20:18 40.77202 -73.13642 1527 ft 185 kts 231°
2026-05-07 20:19 40.76311 -73.14898 2281 ft 189 kts 230°
2026-05-07 20:19 40.75406 -73.16159 2924 ft 191 kts 229°
2026-05-07 20:19 40.74425 -73.17396 3405 ft 200 kts 217°
2026-05-07 20:19 40.73127 -73.18142 3885 ft 212 kts 193°
2026-05-07 20:20 40.71570 -73.18407 4152 ft 238 kts 189°
2026-05-07 20:20 40.69839 -73.18641 4492 ft 262 kts 188°
2026-05-07 20:20 40.67975 -73.18873 5082 ft 274 kts 188°
2026-05-07 20:20 40.66059 -73.19104 5884 ft 278 kts 188°
2026-05-07 20:21 40.64118 -73.19339 6700 ft 282 kts 189°
2026-05-07 20:21 40.62152 -73.19584 7510 ft 285 kts 189°
2026-05-07 20:21 40.60166 -73.19828 8346 ft 288 kts 190°
2026-05-07 20:21 40.58170 -73.20073 9179 ft 289 kts 191°
2026-05-07 20:22 40.56156 -73.20325 9979 ft 291 kts 191°
2026-05-07 20:22 40.54107 -73.20586 10500 ft 305 kts 192°
2026-05-07 20:22 40.51917 -73.20878 10753 ft 325 kts 192°
2026-05-07 20:22 40.49636 -73.21173 11370 ft 331 kts 192°
2026-05-07 20:23 40.47336 -73.21456 12147 ft 332 kts 192°
2026-05-07 20:23 40.45039 -73.21731 12961 ft 331 kts 193°
2026-05-07 20:23 40.42755 -73.22006 13700 ft 330 kts 193°
2026-05-07 20:23 40.40458 -73.22292 14381 ft 333 kts 194°
2026-05-07 20:24 40.38145 -73.22585 15035 ft 335 kts 194°
2026-05-07 20:24 40.35845 -73.22876 15663 ft 337 kts 194°
2026-05-07 20:24 40.33471 -73.23175 16290 ft 339 kts 195°
2026-05-07 20:24 40.31150 -73.23467 16885 ft 341 kts 195°
2026-05-07 20:25 40.28744 -73.23767 17457 ft 344 kts 195°
2026-05-07 20:25 40.26381 -73.24061 17992 ft 347 kts 196°
2026-05-07 20:25 40.23969 -73.24361 18541 ft 349 kts 196°
2026-05-07 20:25 40.21544 -73.24657 19108 ft 351 kts 196°
2026-05-07 20:26 40.19111 -73.24955 19659 ft 352 kts 196°
2026-05-07 20:26 40.16673 -73.25255 20206 ft 352 kts 196°
2026-05-07 20:26 40.14232 -73.25559 20746 ft 353 kts 197°
2026-05-07 20:26 40.11810 -73.25960 21268 ft 346 kts 202°
2026-05-07 20:27 40.09554 -73.26876 21782 ft 335 kts 212°
2026-05-07 20:27 40.07534 -73.28298 22282 ft 326 kts 221°
2026-05-07 20:27 40.05775 -73.30120 22764 ft 323 kts 226°
2026-05-07 20:27 40.04076 -73.32038 23238 ft 323 kts 226°
2026-05-07 20:28 40.02372 -73.33953 23717 ft 324 kts 226°
2026-05-07 20:28 40.00661 -73.35867 24164 ft 324 kts 226°
2026-05-07 20:28 39.98944 -73.37782 24613 ft 324 kts 225°
2026-05-07 20:28 39.97227 -73.39698 24962 ft 327 kts 225°
2026-05-07 20:29 39.95491 -73.41637 25285 ft 330 kts 225°
2026-05-07 20:29 39.93745 -73.43589 25634 ft 332 kts 225°
2026-05-07 20:29 39.91988 -73.45552 25985 ft 333 kts 225°
2026-05-07 20:29 39.90222 -73.47519 26337 ft 335 kts 225°
2026-05-07 20:30 39.88445 -73.49493 26668 ft 337 kts 225°
2026-05-07 20:30 39.86656 -73.51478 27019 ft 339 kts 225°
2026-05-07 20:30 39.84862 -73.53473 27371 ft 340 kts 225°
2026-05-07 20:30 39.83061 -73.55480 27691 ft 342 kts 225°
2026-05-07 20:31 39.81254 -73.57496 28019 ft 343 kts 225°
2026-05-07 20:31 39.79439 -73.59518 28330 ft 344 kts 225°
2026-05-07 20:31 39.77618 -73.61546 28634 ft 345 kts 225°
2026-05-07 20:31 39.75793 -73.63576 28913 ft 347 kts 225°
2026-05-07 20:32 39.73956 -73.65618 29177 ft 348 kts 225°
2026-05-07 20:32 39.72112 -73.67668 29451 ft 349 kts 225°
2026-05-07 20:32 39.70259 -73.69724 29712 ft 351 kts 225°
2026-05-07 20:32 39.68398 -73.71785 29965 ft 352 kts 225°
2026-05-07 20:33 39.66554 -73.73825 30213 ft 354 kts 225°
2026-05-07 20:33 39.64680 -73.75897 30496 ft 354 kts 225°
2026-05-07 20:33 39.62814 -73.77962 30869 ft 351 kts 226°
2026-05-07 20:33 39.60959 -73.80013 31245 ft 349 kts 226°
2026-05-07 20:34 39.59114 -73.82050 31611 ft 347 kts 226°
2026-05-07 20:34 39.57279 -73.84074 31969 ft 345 kts 226°
2026-05-07 20:34 39.55457 -73.86078 32329 ft 343 kts 226°
2026-05-07 20:34 39.53641 -73.88076 32676 ft 342 kts 226°
2026-05-07 20:35 39.51834 -73.90066 32994 ft 341 kts 226°
2026-05-07 20:35 39.50032 -73.92050 33324 ft 339 kts 227°
2026-05-07 20:35 39.48240 -73.94021 33667 ft 337 kts 227°
2026-05-07 20:35 39.46458 -73.95981 33992 ft 335 kts 227°
2026-05-07 20:36 39.44682 -73.97930 34315 ft 334 kts 227°
2026-05-07 20:36 39.42915 -73.99868 34606 ft 333 kts 227°
2026-05-07 20:36 39.41152 -74.01804 34862 ft 332 kts 227°
2026-05-07 20:36 39.39390 -74.03732 35125 ft 331 kts 227°
2026-05-07 20:37 39.37633 -74.05652 35381 ft 330 kts 228°
2026-05-07 20:37 39.35880 -74.07568 35613 ft 330 kts 228°
2026-05-07 20:37 39.34128 -74.09481 35806 ft 330 kts 227°
2026-05-07 20:38 39.30598 -74.13337 35872 ft 330 kts 228°
2026-05-07 20:38 39.27110 -74.17141 35880 ft 331 kts 228°
2026-05-07 20:39 39.23589 -74.20976 35880 ft 332 kts 228°
2026-05-07 20:39 39.20050 -74.24822 35881 ft 333 kts 228°
2026-05-07 20:40 39.16501 -74.28668 35882 ft 334 kts 228°
2026-05-07 20:40 39.12947 -74.32517 35880 ft 334 kts 228°
2026-05-07 20:41 39.09387 -74.36372 35864 ft 335 kts 228°
2026-05-07 20:41 39.05818 -74.40223 35876 ft 335 kts 228°
2026-05-07 20:42 39.02241 -74.44083 35879 ft 336 kts 228°
2026-05-07 20:42 38.98662 -74.47951 35881 ft 336 kts 228°
2026-05-07 20:43 38.95072 -74.51820 35881 ft 337 kts 228°
2026-05-07 20:43 38.91533 -74.55761 35883 ft 336 kts 230°
2026-05-07 20:44 38.88101 -74.59823 35884 ft 336 kts 230°
2026-05-07 20:44 38.84664 -74.63904 35887 ft 337 kts 230°
2026-05-07 20:45 38.81201 -74.67973 35887 ft 338 kts 230°
2026-05-07 20:45 38.77719 -74.72032 35889 ft 339 kts 230°
2026-05-07 20:46 38.74211 -74.76069 35889 ft 340 kts 229°
2026-05-07 20:46 38.70542 -74.79941 35893 ft 343 kts 227°
2026-05-07 20:47 38.66813 -74.83758 35897 ft 343 kts 227°
2026-05-07 20:47 38.63104 -74.87576 35896 ft 342 kts 227°
2026-05-07 20:48 38.59410 -74.91409 35895 ft 342 kts 228°
2026-05-07 20:48 38.55718 -74.95246 35893 ft 342 kts 228°
2026-05-07 20:49 38.52021 -74.99096 35896 ft 342 kts 229°
2026-05-07 20:49 38.48436 -75.03074 35898 ft 341 kts 230°
2026-05-07 20:50 38.44817 -75.07018 35899 ft 344 kts 227°
2026-05-07 20:50 38.40968 -75.10674 35899 ft 346 kts 225°
2026-05-07 20:51 38.37073 -75.14275 35899 ft 345 kts 225°
2026-05-07 20:51 38.33225 -75.17887 35893 ft 346 kts 226°
2026-05-07 20:52 38.29366 -75.21550 35891 ft 346 kts 226°
2026-05-07 20:52 38.26136 -75.24614 35892 ft 346 kts 226°
2026-05-07 20:53 38.22272 -75.28269 35894 ft 346 kts 226°
2026-05-07 20:53 38.18418 -75.31914 35895 ft 345 kts 226°
2026-05-07 20:54 38.14565 -75.35548 35897 ft 345 kts 226°
2026-05-07 20:54 38.10710 -75.39178 35898 ft 346 kts 226°
2026-05-07 20:55 38.06843 -75.42809 35899 ft 345 kts 226°
2026-05-07 20:55 38.02946 -75.46405 35896 ft 347 kts 225°
2026-05-07 20:56 37.98952 -75.49874 35896 ft 348 kts 224°
2026-05-07 20:56 37.94935 -75.53323 35889 ft 349 kts 225°
2026-05-07 20:57 37.90927 -75.56795 35886 ft 350 kts 225°
2026-05-07 20:57 37.86910 -75.60279 35885 ft 351 kts 225°
2026-05-07 20:58 37.82883 -75.63714 35887 ft 353 kts 223°
2026-05-07 20:58 37.78650 -75.66941 35892 ft 356 kts 221°
2026-05-07 20:59 37.74353 -75.70095 35900 ft 357 kts 221°
2026-05-07 20:59 37.70069 -75.73268 35907 ft 357 kts 221°
2026-05-07 21:00 37.65767 -75.76496 35914 ft 357 kts 222°
2026-05-07 21:00 37.61500 -75.79711 35917 ft 357 kts 222°
2026-05-07 21:01 37.57257 -75.82891 35915 ft 357 kts 221°
2026-05-07 21:01 37.53027 -75.86146 35915 ft 351 kts 227°
2026-05-07 21:02 37.49227 -75.89982 35915 ft 348 kts 228°
2026-05-07 21:02 37.45469 -75.93783 35917 ft 349 kts 228°
2026-05-07 21:03 37.41671 -75.97608 35921 ft 350 kts 228°
2026-05-07 21:03 37.37868 -76.01436 35915 ft 350 kts 228°
2026-05-07 21:04 37.34063 -76.05251 35918 ft 349 kts 228°
2026-05-07 21:04 37.30266 -76.09068 35914 ft 349 kts 228°
2026-05-07 21:05 37.26473 -76.12883 35912 ft 350 kts 228°
2026-05-07 21:05 37.22664 -76.16700 35909 ft 351 kts 228°
2026-05-07 21:06 37.18847 -76.20523 35902 ft 352 kts 227°
2026-05-07 21:06 37.15018 -76.24347 35899 ft 352 kts 227°
2026-05-07 21:07 37.11184 -76.28173 35899 ft 352 kts 227°
2026-05-07 21:07 37.07340 -76.32007 35897 ft 353 kts 227°
2026-05-07 21:08 37.03489 -76.35842 35895 ft 354 kts 227°
2026-05-07 21:08 36.99640 -76.39662 35917 ft 352 kts 227°
2026-05-07 21:09 36.95809 -76.43466 35931 ft 351 kts 227°
2026-05-07 21:09 36.91988 -76.47246 35934 ft 350 kts 227°
2026-05-07 21:10 36.88177 -76.51016 35933 ft 349 kts 227°
2026-05-07 21:10 36.84367 -76.54789 35930 ft 350 kts 227°
2026-05-07 21:11 36.80551 -76.58557 35927 ft 350 kts 227°
2026-05-07 21:11 36.74839 -76.64196 35928 ft 351 kts 227°
2026-05-07 21:12 36.71011 -76.67969 35928 ft 351 kts 227°
2026-05-07 21:12 36.67184 -76.71734 35927 ft 350 kts 227°
2026-05-07 21:13 36.63352 -76.75496 35929 ft 351 kts 227°
2026-05-07 21:13 36.59509 -76.79260 35924 ft 352 kts 227°
2026-05-07 21:14 36.55664 -76.83024 35923 ft 352 kts 227°
2026-05-07 21:14 36.51812 -76.86795 35924 ft 352 kts 227°
2026-05-07 21:15 36.47954 -76.90569 35925 ft 353 kts 227°
2026-05-07 21:15 36.44088 -76.94335 35931 ft 353 kts 227°
2026-05-07 21:16 36.40220 -76.98097 35927 ft 353 kts 227°
2026-05-07 21:16 36.36350 -77.01857 35924 ft 354 kts 227°
2026-05-07 21:17 36.32481 -77.05615 35919 ft 353 kts 227°
2026-05-07 21:17 36.28610 -77.09375 35917 ft 353 kts 227°
2026-05-07 21:18 36.24743 -77.13130 35915 ft 353 kts 227°
2026-05-07 21:18 36.20875 -77.16877 35913 ft 353 kts 227°
2026-05-07 21:19 36.16997 -77.20625 35914 ft 354 kts 227°
2026-05-07 21:19 36.13118 -77.24372 35914 ft 354 kts 227°
2026-05-07 21:20 36.09235 -77.28108 35913 ft 354 kts 227°
2026-05-07 21:20 36.05350 -77.31848 35910 ft 354 kts 228°
2026-05-07 21:21 36.01469 -77.35593 35910 ft 354 kts 228°
2026-05-07 21:21 35.97595 -77.39343 35902 ft 354 kts 228°
2026-05-07 21:22 35.93735 -77.43081 35881 ft 356 kts 228°
2026-05-07 21:22 35.89828 -77.46860 35881 ft 357 kts 228°
2026-05-07 21:23 35.85909 -77.50638 35881 ft 358 kts 228°
2026-05-07 21:23 35.81979 -77.54422 35881 ft 359 kts 228°
2026-05-07 21:24 35.78043 -77.58207 35884 ft 359 kts 228°
2026-05-07 21:24 35.74105 -77.61985 35885 ft 359 kts 228°
2026-05-07 21:25 35.70169 -77.65762 35886 ft 359 kts 228°
2026-05-07 21:25 35.66230 -77.69537 35887 ft 359 kts 228°
2026-05-07 21:26 35.62292 -77.73306 35889 ft 359 kts 228°
2026-05-07 21:26 35.58348 -77.77085 35889 ft 359 kts 228°
2026-05-07 21:27 35.54399 -77.80850 35885 ft 359 kts 227°
2026-05-07 21:27 35.50454 -77.84608 35884 ft 359 kts 228°
2026-05-07 21:28 35.46508 -77.88369 35880 ft 359 kts 228°
2026-05-07 21:28 35.42555 -77.92125 35866 ft 360 kts 227°
2026-05-07 21:29 35.38600 -77.95884 35864 ft 360 kts 227°
2026-05-07 21:29 35.34662 -77.99620 35855 ft 361 kts 227°
2026-05-07 21:30 35.30690 -78.03377 35854 ft 361 kts 227°
2026-05-07 21:30 35.26721 -78.07129 35854 ft 360 kts 227°
2026-05-07 21:31 35.22755 -78.10875 35850 ft 361 kts 227°
2026-05-07 21:31 35.18780 -78.14626 35853 ft 361 kts 227°
2026-05-07 21:32 35.14798 -78.18385 35860 ft 362 kts 227°
2026-05-07 21:32 35.10803 -78.22147 35857 ft 363 kts 227°
2026-05-07 21:33 35.06793 -78.25909 35857 ft 364 kts 227°
2026-05-07 21:33 35.02778 -78.29676 35847 ft 364 kts 227°
2026-05-07 21:34 34.98760 -78.33444 35844 ft 364 kts 227°
2026-05-07 21:34 34.94744 -78.37207 35838 ft 365 kts 227°
2026-05-07 21:35 34.90717 -78.40979 35838 ft 365 kts 227°
2026-05-07 21:35 34.86681 -78.44752 35833 ft 366 kts 227°
2026-05-07 21:36 34.82633 -78.48530 35834 ft 367 kts 227°
2026-05-07 21:36 34.78579 -78.52311 35837 ft 367 kts 227°
2026-05-07 21:37 34.74515 -78.56091 35835 ft 368 kts 227°
2026-05-07 21:37 34.70444 -78.59869 35839 ft 368 kts 227°
2026-05-07 21:38 34.67066 -78.63007 35840 ft 368 kts 227°
2026-05-07 21:38 34.62998 -78.66789 35850 ft 368 kts 227°
2026-05-07 21:39 34.58918 -78.70566 35852 ft 369 kts 227°
2026-05-07 21:39 34.54831 -78.74348 35849 ft 369 kts 227°
2026-05-07 21:40 34.50736 -78.78125 35862 ft 370 kts 227°
2026-05-07 21:40 34.46634 -78.81897 35866 ft 371 kts 227°
2026-05-07 21:41 34.42505 -78.85652 35861 ft 372 kts 226°
2026-05-07 21:41 34.38251 -78.89260 35871 ft 374 kts 224°
2026-05-07 21:42 34.33955 -78.92809 35866 ft 374 kts 224°
2026-05-07 21:42 34.29676 -78.96375 35880 ft 373 kts 225°
2026-05-07 21:43 34.25420 -78.99961 35881 ft 373 kts 225°
2026-05-07 21:43 34.21164 -79.03541 35881 ft 373 kts 225°
2026-05-07 21:44 34.16912 -79.07114 35880 ft 373 kts 225°
2026-05-07 21:44 34.12658 -79.10689 35881 ft 372 kts 225°
2026-05-07 21:45 34.08399 -79.14261 35882 ft 372 kts 225°
2026-05-07 21:45 34.04146 -79.17818 35882 ft 372 kts 225°
2026-05-07 21:46 33.99884 -79.21375 35884 ft 373 kts 225°
2026-05-07 21:46 33.95616 -79.24926 35854 ft 373 kts 224°
2026-05-07 21:47 33.91336 -79.28498 35852 ft 375 kts 224°
2026-05-07 21:47 33.87036 -79.32089 35845 ft 377 kts 224°
2026-05-07 21:48 33.82721 -79.35681 35847 ft 377 kts 224°
2026-05-07 21:48 33.78400 -79.39266 35858 ft 378 kts 224°
2026-05-07 21:49 33.74072 -79.42855 35875 ft 378 kts 224°
2026-05-07 21:49 33.69742 -79.46446 35885 ft 378 kts 224°
2026-05-07 21:50 33.65408 -79.50035 35892 ft 378 kts 224°
2026-05-07 21:50 33.61071 -79.53618 35896 ft 379 kts 224°
2026-05-07 21:51 33.56735 -79.57195 35899 ft 379 kts 224°
2026-05-07 21:51 33.52396 -79.60773 35898 ft 378 kts 224°
2026-05-07 21:52 33.48055 -79.64350 35894 ft 379 kts 224°
2026-05-07 21:52 33.43708 -79.67923 35891 ft 379 kts 224°
2026-05-07 21:53 33.39357 -79.71500 35889 ft 379 kts 224°
2026-05-07 21:53 33.35000 -79.75079 35886 ft 380 kts 224°
2026-05-07 21:54 33.30632 -79.78652 35883 ft 381 kts 223°
2026-05-07 21:54 33.26261 -79.82218 35882 ft 381 kts 224°
2026-05-07 21:55 33.21878 -79.85805 35882 ft 382 kts 224°
2026-05-07 21:55 33.17513 -79.89374 35880 ft 383 kts 223°
2026-05-07 21:56 33.13104 -79.92976 35880 ft 385 kts 223°
2026-05-07 21:56 33.08670 -79.96578 35875 ft 386 kts 223°
2026-05-07 21:57 33.04225 -80.00187 35881 ft 387 kts 223°
2026-05-07 21:57 32.99766 -80.03811 35885 ft 388 kts 223°
2026-05-07 21:58 32.95296 -80.07437 35886 ft 389 kts 223°
2026-05-07 21:58 32.90817 -80.11060 35885 ft 390 kts 223°
2026-05-07 21:59 32.86330 -80.14694 35884 ft 391 kts 223°
2026-05-07 21:59 32.81822 -80.18336 35881 ft 392 kts 222°
2026-05-07 22:00 32.77298 -80.21992 35883 ft 394 kts 222°
2026-05-07 22:00 32.72753 -80.25658 35885 ft 396 kts 222°
2026-05-07 22:01 32.68195 -80.29327 35884 ft 397 kts 222°
2026-05-07 22:01 32.63617 -80.33007 35890 ft 398 kts 222°
2026-05-07 22:02 32.59023 -80.36691 35895 ft 399 kts 222°
2026-05-07 22:02 32.54307 -80.40221 35892 ft 403 kts 218°
2026-05-07 22:03 32.49389 -80.43482 35890 ft 406 kts 217°
2026-05-07 22:03 32.44440 -80.46710 35892 ft 407 kts 217°
2026-05-07 22:04 32.39509 -80.49995 35897 ft 407 kts 218°
2026-05-07 22:04 32.34587 -80.53317 35902 ft 407 kts 218°
2026-05-07 22:05 32.29662 -80.56642 35904 ft 408 kts 218°
2026-05-07 22:05 32.24758 -80.59942 35909 ft 408 kts 218°
2026-05-07 22:06 32.19786 -80.63278 35914 ft 408 kts 218°
2026-05-07 22:06 32.14882 -80.66558 35916 ft 408 kts 218°
2026-05-07 22:07 32.09941 -80.69861 35919 ft 408 kts 218°
2026-05-07 22:07 32.05002 -80.73162 35914 ft 408 kts 217°
2026-05-07 22:08 32.00060 -80.76463 35911 ft 408 kts 217°
2026-05-07 22:08 31.95107 -80.79766 35896 ft 410 kts 217°
2026-05-07 22:09 31.90126 -80.83083 35884 ft 412 kts 217°
2026-05-07 22:09 31.85124 -80.86410 35881 ft 414 kts 217°
2026-05-07 22:10 31.80106 -80.89740 35883 ft 415 kts 217°
2026-05-07 22:10 31.75064 -80.93077 35889 ft 416 kts 217°
2026-05-07 22:11 31.70011 -80.96416 35894 ft 417 kts 217°
2026-05-07 22:11 31.64955 -80.99764 35897 ft 417 kts 217°
2026-05-07 22:12 31.59898 -81.03110 35904 ft 418 kts 217°
2026-05-07 22:12 31.54800 -81.06392 35912 ft 419 kts 215°
2026-05-07 22:13 31.49625 -81.09538 35918 ft 419 kts 214°
2026-05-07 22:13 31.44439 -81.12654 35922 ft 419 kts 214°
2026-05-07 22:14 31.39262 -81.15794 35921 ft 419 kts 215°
2026-05-07 22:14 31.34128 -81.18909 35920 ft 419 kts 214°
2026-05-07 22:15 31.28925 -81.22004 35920 ft 420 kts 214°
2026-05-07 22:15 31.23704 -81.25081 35923 ft 420 kts 214°
2026-05-07 22:16 31.18253 -81.27700 35926 ft 433 kts 201°
2026-05-07 22:16 31.15235 -81.28220 35923 ft 445 kts 191°
2026-05-07 22:16 31.12119 -81.28241 35919 ft 449 kts 188°
2026-05-07 22:17 31.05879 -81.28212 35918 ft 449 kts 188°
2026-05-07 22:17 30.99627 -81.28206 35915 ft 449 kts 188°
2026-05-07 22:18 30.90230 -81.28196 35919 ft 450 kts 188°
2026-05-07 22:19 30.83962 -81.28183 35923 ft 450 kts 188°
2026-05-07 22:19 30.77694 -81.28165 35923 ft 451 kts 188°
2026-05-07 22:20 30.71420 -81.28150 35925 ft 451 kts 188°
2026-05-07 22:20 30.65074 -81.28141 35302 ft 465 kts 188°
2026-05-07 22:20 30.61814 -81.28140 34352 ft 469 kts 187°
2026-05-07 22:21 30.58562 -81.28090 33584 ft 466 kts 186°
2026-05-07 22:21 30.55344 -81.27912 33361 ft 461 kts 184°
2026-05-07 22:21 30.52142 -81.27655 33059 ft 460 kts 184°
2026-05-07 22:21 30.48958 -81.27357 32697 ft 458 kts 183°
2026-05-07 22:22 30.45792 -81.27057 32340 ft 455 kts 184°
2026-05-07 22:22 30.42649 -81.26777 32006 ft 452 kts 184°
2026-05-07 22:22 30.39521 -81.26521 31659 ft 449 kts 184°
2026-05-07 22:22 30.36409 -81.26286 31321 ft 447 kts 185°
2026-05-07 22:23 30.33313 -81.26062 30982 ft 445 kts 185°
2026-05-07 22:23 30.30234 -81.25840 30644 ft 442 kts 185°
2026-05-07 22:23 30.27171 -81.25616 30311 ft 440 kts 185°
2026-05-07 22:23 30.25155 -81.25465 30093 ft 439 kts 185°
2026-05-07 22:24 30.21097 -81.25161 29653 ft 436 kts 185°
2026-05-07 22:24 30.19095 -81.25012 29435 ft 434 kts 185°
2026-05-07 22:24 30.16088 -81.24786 29104 ft 432 kts 185°
2026-05-07 22:24 30.13101 -81.24562 28773 ft 430 kts 185°
2026-05-07 22:25 30.10123 -81.24343 28459 ft 428 kts 185°
2026-05-07 22:25 30.07159 -81.24124 28134 ft 426 kts 185°
2026-05-07 22:25 30.04210 -81.23906 27810 ft 424 kts 185°
2026-05-07 22:25 30.01273 -81.23686 27488 ft 422 kts 185°
2026-05-07 22:26 29.98351 -81.23465 27170 ft 420 kts 185°
2026-05-07 22:26 29.95442 -81.23245 26865 ft 418 kts 185°
2026-05-07 22:26 29.92542 -81.23030 26533 ft 417 kts 185°
2026-05-07 22:26 29.89649 -81.22817 26218 ft 416 kts 184°
2026-05-07 22:27 29.86768 -81.22607 25896 ft 414 kts 185°
2026-05-07 22:27 29.83900 -81.22393 25584 ft 412 kts 184°
2026-05-07 22:27 29.81044 -81.22177 25267 ft 410 kts 184°
2026-05-07 22:27 29.78204 -81.21963 24965 ft 408 kts 184°
2026-05-07 22:28 29.75374 -81.21750 24664 ft 406 kts 184°
2026-05-07 22:28 29.72557 -81.21541 24354 ft 405 kts 184°
2026-05-07 22:28 29.69797 -81.21337 24048 ft 403 kts 184°
2026-05-07 22:28 29.67002 -81.21115 23750 ft 402 kts 184°
2026-05-07 22:29 29.64216 -81.20875 23446 ft 400 kts 183°
2026-05-07 22:29 29.61443 -81.20630 23142 ft 398 kts 183°
2026-05-07 22:29 29.58684 -81.20385 22845 ft 397 kts 183°
2026-05-07 22:29 29.55942 -81.20144 22543 ft 394 kts 183°
2026-05-07 22:30 29.53219 -81.19910 22251 ft 392 kts 183°
2026-05-07 22:30 29.50508 -81.19682 21957 ft 390 kts 183°
2026-05-07 22:30 29.47810 -81.19455 21656 ft 388 kts 183°
2026-05-07 22:30 29.45125 -81.19226 21358 ft 386 kts 183°
2026-05-07 22:31 29.42457 -81.18996 21068 ft 384 kts 183°
2026-05-07 22:31 29.39796 -81.18766 20777 ft 383 kts 183°
2026-05-07 22:31 29.37145 -81.18535 20499 ft 381 kts 183°
2026-05-07 22:31 29.34508 -81.18310 20185 ft 379 kts 183°
2026-05-07 22:32 29.31887 -81.18087 19901 ft 377 kts 183°
2026-05-07 22:32 29.29283 -81.17867 19601 ft 375 kts 183°
2026-05-07 22:32 29.26684 -81.17645 19312 ft 374 kts 182°
2026-05-07 22:32 29.24093 -81.17420 19033 ft 372 kts 182°
2026-05-07 22:33 29.21517 -81.17194 18752 ft 370 kts 182°
2026-05-07 22:33 29.18954 -81.16843 18474 ft 374 kts 174°
2026-05-07 22:33 29.16455 -81.15950 18181 ft 379 kts 165°
2026-05-07 22:33 29.13998 -81.14864 17894 ft 378 kts 165°
2026-05-07 22:34 29.11550 -81.13793 17630 ft 376 kts 165°
2026-05-07 22:34 29.09115 -81.12734 17344 ft 374 kts 165°
2026-05-07 22:34 29.06689 -81.11679 17055 ft 372 kts 165°
2026-05-07 22:34 29.04265 -81.10681 16775 ft 369 kts 167°
2026-05-07 22:35 29.01841 -81.09752 16503 ft 366 kts 168°
2026-05-07 22:35 28.99422 -81.08861 16219 ft 364 kts 168°
2026-05-07 22:35 28.96995 -81.08126 15936 ft 357 kts 176°
2026-05-07 22:35 28.94546 -81.07819 15512 ft 353 kts 180°
2026-05-07 22:36 28.92111 -81.07552 15104 ft 350 kts 180°
2026-05-07 22:36 28.89700 -81.07332 14704 ft 344 kts 185°
2026-05-07 22:36 28.87381 -81.07574 14323 ft 335 kts 197°
2026-05-07 22:36 28.85177 -81.08328 13952 ft 328 kts 205°
2026-05-07 22:37 28.83037 -81.09220 13579 ft 327 kts 205°
2026-05-07 22:37 28.80909 -81.10106 13213 ft 325 kts 204°
2026-05-07 22:37 28.78789 -81.10982 12833 ft 323 kts 204°
2026-05-07 22:37 28.76686 -81.11851 12466 ft 321 kts 204°
2026-05-07 22:38 28.74604 -81.12714 12190 ft 310 kts 204°
2026-05-07 22:38 28.72628 -81.13529 11856 ft 298 kts 204°
2026-05-07 22:38 28.70694 -81.14324 11591 ft 294 kts 202°
2026-05-07 22:38 28.68715 -81.14890 11334 ft 292 kts 197°
2026-05-07 22:39 28.66732 -81.15411 11062 ft 292 kts 197°
2026-05-07 22:39 28.64754 -81.15931 10617 ft 293 kts 197°
2026-05-07 22:39 28.62764 -81.16451 10141 ft 293 kts 196°
2026-05-07 22:39 28.60782 -81.16968 9678 ft 291 kts 196°
2026-05-07 22:40 28.58823 -81.17477 9299 ft 285 kts 195°
2026-05-07 22:40 28.56945 -81.17959 9080 ft 270 kts 195°
2026-05-07 22:40 28.55134 -81.18424 8821 ft 264 kts 195°
2026-05-07 22:40 28.53304 -81.18637 8699 ft 266 kts 183°
2026-05-07 22:41 28.51449 -81.18649 8487 ft 266 kts 183°
2026-05-07 22:41 28.49601 -81.18665 8148 ft 265 kts 183°
2026-05-07 22:41 28.47703 -81.18673 7799 ft 280 kts 183°
2026-05-07 22:41 28.45755 -81.18679 7444 ft 277 kts 183°
2026-05-07 22:42 28.43862 -81.18680 7094 ft 267 kts 183°
2026-05-07 22:42 28.42038 -81.18673 6748 ft 257 kts 183°
2026-05-07 22:42 28.40281 -81.18661 6399 ft 248 kts 183°
2026-05-07 22:42 28.38567 -81.18646 6053 ft 244 kts 182°
2026-05-07 22:43 28.36873 -81.18638 5709 ft 244 kts 183°
2026-05-07 22:43 28.35174 -81.18630 5363 ft 244 kts 182°
2026-05-07 22:43 28.33477 -81.18629 5034 ft 243 kts 183°
2026-05-07 22:43 28.31795 -81.18630 4740 ft 242 kts 183°
2026-05-07 22:44 28.30125 -81.18632 4503 ft 237 kts 183°
2026-05-07 22:44 28.28502 -81.18637 4294 ft 229 kts 183°
2026-05-07 22:44 28.26979 -81.18804 4086 ft 213 kts 204°
2026-05-07 22:44 28.25859 -81.19763 3889 ft 198 kts 238°
2026-05-07 22:45 28.25410 -81.21177 3776 ft 188 kts 258°
2026-05-07 22:45 28.25275 -81.22635 3618 ft 185 kts 265°
2026-05-07 22:45 28.25206 -81.24085 3523 ft 185 kts 266°
2026-05-07 22:45 28.25199 -81.25542 3444 ft 186 kts 278°
2026-05-07 22:46 28.25724 -81.26886 3201 ft 190 kts 306°
2026-05-07 22:46 28.26759 -81.27819 3003 ft 194 kts 333°
2026-05-07 22:46 28.28094 -81.28104 2786 ft 198 kts 356°
2026-05-07 22:46 28.29473 -81.28114 2519 ft 198 kts 357°
2026-05-07 22:47 28.30820 -81.28121 2277 ft 190 kts 356°
2026-05-07 22:47 28.32128 -81.28133 2019 ft 185 kts 356°
2026-05-07 22:47 28.33370 -81.28146 1779 ft 173 kts 356°
2026-05-07 22:47 28.34548 -81.28157 1554 ft 165 kts 356°
2026-05-07 22:48 28.35676 -81.28168 1339 ft 160 kts 356°
2026-05-07 22:48 28.36777 -81.28180 1135 ft 158 kts 356°
2026-05-07 22:48 28.37869 -81.28191 941 ft 156 kts 356°
2026-05-07 22:48 28.38955 -81.28202 733 ft 156 kts 356°
2026-05-07 22:49 28.40035 -81.28206 494 ft 155 kts 357°
2026-05-07 22:49 28.41113 -81.28225 292 ft 155 kts 356°
2026-05-07 22:49 28.42182 -81.28231 115 ft 148 kts 358°
2026-05-07 22:49 28.43109 -81.28249 99 ft 112 kts 359°
2026-05-07 22:50 28.43604 -81.28249 103 ft 33 kts
2026-05-07 22:50 28.43796 -81.28276 107 ft 20 kts 337°
2026-05-07 22:50 28.43873 -81.28385 107 ft 19 kts 284°
2026-05-07 22:50 28.43874 -81.28541 107 ft 21 kts 269°
2026-05-07 22:51 28.43873 -81.28716 107 ft 23 kts 269°
2026-05-07 22:51 28.43870 -81.28901 107 ft 24 kts 269°
2026-05-07 22:51 28.43869 -81.29054 107 ft 16 kts 271°
2026-05-07 22:51 28.43868 -81.29210 100 ft 22 kts 264°
2026-05-07 22:52 28.43784 -81.29261 101 ft 15 kts 181°
2026-05-07 22:52 28.43673 -81.29262 103 ft 17 kts 180°
2026-05-07 22:52 28.43562 -81.29283 103 ft 16 kts 226°
2026-05-07 22:52 28.43552 -81.29394 107 ft 15 kts 270°
2026-05-07 22:53 28.43552 -81.29517 104 ft 17 kts 270°
2026-05-07 22:53 28.43550 -81.29666 103 ft 20 kts 269°
2026-05-07 22:53 28.43562 -81.29785 103 ft 14 kts 303°
2026-05-07 22:53 28.43647 -81.29808 103 ft 12 kts 359°
2026-05-07 22:54 28.43729 -81.29814 104 ft 11 kts 352°
2026-05-07 22:54 28.43799 -81.29845 103 ft 11 kts 328°
2026-05-07 22:54 28.43861 -81.29919 104 ft 15 kts 303°
2026-05-07 22:54 28.43902 -81.30047 103 ft 20 kts 277°
2026-05-07 22:55 28.43907 -81.30221 102 ft 24 kts 272°
2026-05-07 22:55 28.43919 -81.30414 101 ft 25 kts 273°
2026-05-07 22:55 28.43927 -81.30601 109 ft 18 kts 272°
2026-05-07 22:55 28.43932 -81.30688 121 ft 10 kts 274°
2026-05-07 22:56 28.43937 -81.30767 121 ft 9 kts 274°
2026-05-07 22:56 28.43941 -81.30835 123 ft 6 kts 274°
2026-05-07 22:56 28.43943 -81.30948 100 ft 25 kts 269°
2026-05-07 22:56 28.43957 -81.31042 117 ft 0 kts 330°
2026-05-07 22:57 28.43957 -81.31041 118 ft 0 kts 342°